Monticello, KY

11:24 AM EDT on June 26, 2017 (GMT -0400)
Wayne County

Weather History for KEKQ - June, 2013

Change the Weather History Date:

Tuesday, June 25, 2013

  Actual Average Record
Temperature  
Mean Temperature 77 °F -  
Max Temperature 88 °F 86 °F 98 °F (1988)
Min Temperature 66 °F 62 °F 47 °F (1979)
Cooling Degree Days 12    
Growing Degree Days 27 (Base 50)    
Moisture  
Dew Point 73 °F    
Average Humidity 85    
Maximum Humidity 100    
Minimum Humidity 55    
Precipitation  
Precipitation 0.00 in - - ()
Sea Level Pressure  
Sea Level Pressure 30.10 in    
Wind  
Wind Speed 4 mph (SW)    
Max Wind Speed 13 mph    
Max Gust Speed -    
Visibility 8 miles    
Events      
Averages and records for this station are not official NWS values.
T = Trace of Precipitation, MM = Missing Value Source: NWS Daily Summary

Daily Weather History Graph

Daily Weather History Graph

Search for Another Location

Airport or City:

Trip Planner

Search our weather history database for the weather conditions in past years. The results will help you decide how hot, cold, wet, or windy it might be!

Date:

Astronomy

Jun. 25, 2013 Rise Set
Actual Time 5:21 AM CDT 8:02 PM CDT
Civil Twilight 4:50 AM CDT 8:33 PM CDT
Nautical Twilight 4:12 AM CDT 9:11 PM CDT
Astronomical Twilight 3:29 AM CDT 9:54 PM CDT
Moon 9:52 PM CDT (6/25) 7:56 AM CDT (6/25)
Length of Visible Light 15h 42m
Length of Day
14h 40m
Waning Gibbous, 92% of the Moon is Illuminated
Jun 25
Waning Gibbous
Jun 29
Last Quarter
Jul 8
New
Jul 15
First Quarter
Jul 22
Full

Hourly Weather History & Observations

Time (CDT) Temp. Heat Index Dew Point Humidity Pressure Visibility Wind Dir Wind Speed Gust Speed Precip Events Conditions
12:56 AM 70.9 °F - 70.9 °F 100% 30.11 in 10.0 mi Calm Calm - N/A   Clear
1:56 AM 68.0 °F - 68.0 °F 100% 30.11 in 6.0 mi Calm Calm - N/A   Clear
2:56 AM 68.0 °F - 68.0 °F 100% 30.11 in 7.0 mi Calm Calm - N/A   Clear
3:56 AM 66.9 °F - 66.9 °F 100% 30.11 in 4.0 mi SSW 4.6 mph - N/A   Clear
4:56 AM 66.9 °F - 66.9 °F 100% 30.12 in 4.0 mi SSW 5.8 mph - N/A   Clear
5:56 AM 68.0 °F - 68.0 °F 100% 30.13 in 4.0 mi SSW 4.6 mph - N/A   Partly Cloudy
6:56 AM 72.0 °F - 72.0 °F 100% 30.15 in 8.0 mi WSW 3.5 mph - N/A   Clear
7:31 AM 75.2 °F - 73.4 °F 94% 30.16 in 10.0 mi SW 4.6 mph - N/A   Mostly Cloudy
7:44 AM 75.2 °F - 73.4 °F 94% 30.17 in 9.0 mi SW 8.1 mph - N/A   Mostly Cloudy
7:56 AM 77.0 °F - 73.9 °F 90% 30.15 in 9.0 mi SW 5.8 mph - N/A   Scattered Clouds
8:56 AM 79.9 °F - 74.8 °F 85% 30.15 in 8.0 mi SW 9.2 mph - N/A   Partly Cloudy
9:26 AM 78.8 °F - 73.4 °F 83% 30.17 in 7.0 mi SW 12.7 mph - N/A   Mostly Cloudy
9:56 AM 79.9 °F - 74.8 °F 85% 30.16 in 8.0 mi SW 9.2 mph - N/A   Mostly Cloudy
10:35 AM 82.4 °F 89.5 °F 75.2 °F 79% 30.16 in 7.0 mi Variable 6.9 mph - N/A   Scattered Clouds
10:56 AM 82.9 °F 90.8 °F 75.9 °F 79% 30.14 in 8.0 mi SW 10.4 mph - N/A   Partly Cloudy
11:56 AM 84.9 °F 93.3 °F 74.8 °F 72% 30.13 in 10.0 mi West 10.4 mph - N/A   Partly Cloudy
12:56 PM 86.9 °F 95.0 °F 73.9 °F 65% 30.12 in 10.0 mi West 6.9 mph - N/A   Clear
1:56 PM 86.9 °F 94.1 °F 72.9 °F 63% 30.09 in 10.0 mi Variable 5.8 mph - N/A   Scattered Clouds
2:56 PM 88.0 °F 93.8 °F 70.9 °F 57% 30.08 in 10.0 mi West 5.8 mph - N/A   Partly Cloudy
3:56 PM 88.9 °F 94.7 °F 70.9 °F 55% 30.05 in 10.0 mi WNW 4.6 mph - N/A   Partly Cloudy
4:56 PM 88.0 °F 93.8 °F 70.9 °F 57% 30.03 in 10.0 mi WSW 9.2 mph - N/A   Partly Cloudy
5:56 PM 83.8 °F 90.8 °F 73.9 °F 72% 30.03 in 10.0 mi NW 3.5 mph - N/A   Clear
6:56 PM 82.9 °F 89.9 °F 74.8 °F 76% 30.02 in 10.0 mi SW 4.6 mph - N/A   Clear
7:56 PM 79.0 °F - 74.8 °F 87% 30.02 in 10.0 mi Calm Calm - N/A   Clear
8:56 PM 77.0 °F - 75.9 °F 96% 30.01 in 10.0 mi South 4.6 mph - N/A   Clear
9:56 PM 75.9 °F - 75.9 °F 100% 30.03 in 9.0 mi Calm Calm - N/A   Clear
10:56 PM 74.8 °F - 74.8 °F 100% 30.03 in 8.0 mi SW 3.5 mph - N/A   Clear
11:56 PM 73.9 °F - 73.9 °F 100% 30.03 in 7.0 mi South 3.5 mph - N/A   Clear